, CO

(GMT )
Cottonwood Pass

Weather History for K7BM - March, 2014

Change the Weather History Date:

Saturday, March 15, 2014

  Actual Average Record
Temperature  
Mean Temperature 29 °F -  
Max Temperature 35 °F - - ()
Min Temperature 23 °F - - ()
Degree Days  
Heating Degree Days 36    
Moisture  
Dew Point 5 °F    
Average Humidity 35    
Maximum Humidity 74    
Minimum Humidity 22    
Precipitation  
Precipitation 0.00 in - - ()
Sea Level Pressure  
Sea Level Pressure 30.09 in    
Wind  
Wind Speed 8 mph (NNW)    
Max Wind Speed 24 mph    
Max Gust Speed 34 mph    
Visibility 10 miles    
Events Snow    
T = Trace of Precipitation, MM = Missing Value Source: NWS Daily Summary

Daily Weather History Graph

Daily Weather History Graph

Search for Another Location

Airport or City:

Trip Planner

Search our weather history database for the weather conditions in past years. The results will help you decide how hot, cold, wet, or windy it might be!

Date:

Astronomy

Mar. 15, 2014 Rise Set
Actual Time 7:16 AM MDT 7:12 PM MDT
Civil Twilight 6:49 AM MDT 7:38 PM MDT
Nautical Twilight 6:18 AM MDT 8:09 PM MDT
Astronomical Twilight 5:47 AM MDT 8:40 PM MDT
Moon 6:34 PM MDT (3/15) 6:29 AM MDT (3/15)
Length of Visible Light 12h 48m
Length of Day
11h 55m
Waxing Gibbous, 99% of the Moon is Illuminated
Mar 15
Waxing Gibbous
Mar 16
Full
Mar 23
Last Quarter
Mar 30
New
Apr 7
First Quarter

Hourly Weather History & Observations

Time (MDT) Temp. Windchill Dew Point Humidity Pressure Visibility Wind Dir Wind Speed Gust Speed Precip Events Conditions
12:15 AM 33.8 °F 26.4 °F 10.4 °F 38% 30.05 in 10.0 mi NNW 9.2 mph - N/A   Clear
12:35 AM 33.8 °F 26.4 °F 12.2 °F 41% 30.04 in 10.0 mi NNW 9.2 mph - N/A   Clear
12:55 AM 33.8 °F 27.0 °F 12.2 °F 41% 30.04 in 10.0 mi NNW 8.1 mph - N/A   Clear
1:15 AM 33.8 °F 27.0 °F 12.2 °F 41% 30.03 in 10.0 mi NNW 8.1 mph - N/A   Clear
1:35 AM 32.0 °F 26.4 °F 10.4 °F 41% 30.02 in 10.0 mi NNW 5.8 mph - N/A   Clear
1:55 AM 33.8 °F 27.0 °F 8.6 °F 35% 30.02 in 10.0 mi NW 8.1 mph - N/A   Clear
2:15 AM 32.0 °F 23.6 °F 8.6 °F 38% 30.02 in 10.0 mi NNW 10.4 mph 21.9 mph N/A   Clear
2:34 AM 32.0 °F 26.4 °F 5.0 °F 32% 30.02 in 10.0 mi North 5.8 mph 20.7 mph N/A   Clear
2:55 AM 32.0 °F 25.6 °F 8.6 °F 38% 30.00 in 10.0 mi North 6.9 mph - N/A   Clear
3:15 AM 32.0 °F 26.4 °F 8.6 °F 38% 30.00 in 10.0 mi North 5.8 mph - N/A   Clear
3:33 AM 32.0 °F 25.6 °F 8.6 °F 38% 30.00 in 10.0 mi North 6.9 mph - N/A   Clear
3:54 AM 32.0 °F 27.5 °F 8.6 °F 38% 29.99 in 10.0 mi North 4.6 mph - N/A   Clear
4:15 AM 32.0 °F 26.4 °F 8.6 °F 38% 29.98 in 10.0 mi North 5.8 mph - N/A   Clear
4:34 AM 32.0 °F 24.2 °F 8.6 °F 38% 29.99 in 10.0 mi North 9.2 mph - N/A   Clear
4:55 AM 32.0 °F 25.6 °F 8.6 °F 38% 29.98 in 10.0 mi NNW 6.9 mph - N/A   Clear
5:14 AM 32.0 °F 26.4 °F 6.8 °F 35% 29.98 in 10.0 mi NNW 5.8 mph - N/A   Clear
5:35 AM 30.2 °F 22.6 °F 8.6 °F 40% 29.98 in 10.0 mi North 8.1 mph - N/A   Clear
5:55 AM 30.2 °F 24.3 °F 8.6 °F 40% 29.98 in 10.0 mi NNW 5.8 mph - N/A   Clear
6:15 AM 30.2 °F 19.8 °F 6.8 °F 37% 29.98 in 10.0 mi WNW 13.8 mph 26.5 mph N/A   Clear
6:34 AM 30.2 °F 18.5 °F 8.6 °F 40% 29.98 in 10.0 mi West 17.3 mph 27.6 mph N/A   Clear
6:55 AM 30.2 °F 16.5 °F 8.6 °F 40% 29.98 in 10.0 mi West 24.2 mph 34.5 mph N/A   Clear
7:15 AM 30.2 °F 18.9 °F 10.4 °F 44% 29.98 in 10.0 mi WNW 16.1 mph 34.5 mph N/A   Clear
7:35 AM 30.2 °F 19.3 °F 10.4 °F 44% 29.99 in 10.0 mi WNW 15.0 mph 26.5 mph N/A   Clear
7:55 AM 30.2 °F 19.3 °F 12.2 °F 47% 30.00 in 10.0 mi WNW 15.0 mph 26.5 mph N/A   Clear
8:15 AM 28.4 °F 20.4 °F 15.8 °F 59% 30.00 in 10.0 mi WNW 8.1 mph 11.5 mph N/A   Mostly Cloudy
8:35 AM 28.4 °F 19.7 °F 17.6 °F 64% 30.00 in 7.0 mi WNW 9.2 mph 23.0 mph N/A Snow Light Snow
8:54 AM 30.2 °F 19.3 °F 12.2 °F 47% 30.00 in 10.0 mi West 15.0 mph 25.3 mph N/A   Scattered Clouds
9:15 AM 30.2 °F - 10.4 °F 44% 30.02 in 10.0 mi Calm Calm - N/A   Clear
9:35 AM 32.0 °F 26.4 °F 8.6 °F 38% 30.03 in 10.0 mi West 5.8 mph - N/A   Scattered Clouds
9:55 AM 32.0 °F 28.7 °F 6.8 °F 35% 30.03 in 10.0 mi NW 3.5 mph - N/A   Mostly Cloudy
10:14 AM 32.0 °F 26.4 °F 8.6 °F 38% 30.04 in 10.0 mi West 5.8 mph 18.4 mph N/A   Mostly Cloudy
10:35 AM 32.0 °F 23.0 °F 8.6 °F 38% 30.05 in 10.0 mi West 11.5 mph 21.9 mph N/A   Mostly Cloudy
10:54 AM 32.0 °F - 1.4 °F 27% 30.05 in 10.0 mi Calm Calm - N/A   Mostly Cloudy
11:15 AM 32.0 °F 27.5 °F 12.2 °F 44% 30.06 in 10.0 mi North 4.6 mph - N/A   Mostly Cloudy
11:34 AM 33.8 °F 25.3 °F 1.4 °F 25% 30.06 in 10.0 mi WNW 11.5 mph 23.0 mph N/A   Scattered Clouds
11:54 AM 32.0 °F 24.8 °F -0.4 °F 25% 30.06 in 10.0 mi NNW 8.1 mph - N/A   Scattered Clouds
12:14 PM 32.0 °F 21.6 °F -0.4 °F 25% 30.06 in 10.0 mi West 15.0 mph 21.9 mph N/A   Scattered Clouds
12:35 PM 33.8 °F 27.7 °F -0.4 °F 23% 30.06 in 10.0 mi West 6.9 mph - N/A   Mostly Cloudy
12:55 PM 33.8 °F 25.8 °F -2.2 °F 22% 30.06 in 10.0 mi NW 10.4 mph 17.3 mph N/A   Scattered Clouds
1:15 PM 35.6 °F - -0.4 °F 22% 30.06 in 10.0 mi Calm Calm - N/A   Scattered Clouds
1:34 PM 35.6 °F 32.8 °F 6.8 °F 30% 30.05 in 10.0 mi NE 3.5 mph - N/A   Mostly Cloudy
1:54 PM 33.8 °F - 14.0 °F 44% 30.06 in 10.0 mi Calm Calm - N/A   Overcast
2:15 PM 30.2 °F - 15.8 °F 55% 30.07 in 3.0 mi Calm Calm - N/A   Haze
2:35 PM 28.4 °F 23.3 °F 21.2 °F 74% 30.08 in 0.8 mi North 4.6 mph - N/A Snow Light Snow
2:55 PM 32.0 °F 28.7 °F 15.8 °F 51% 30.08 in 5.0 mi North 3.5 mph - N/A   Haze
3:15 PM 32.0 °F 24.8 °F 1.4 °F 27% 30.08 in 10.0 mi NNW 8.1 mph 21.9 mph N/A   Scattered Clouds
3:35 PM 33.8 °F 29.6 °F -0.4 °F 23% 30.09 in 10.0 mi North 4.6 mph - N/A   Scattered Clouds
3:54 PM 33.8 °F 29.6 °F -0.4 °F 23% 30.10 in 10.0 mi East 4.6 mph - N/A   Scattered Clouds
4:14 PM 32.0 °F 28.7 °F 10.4 °F 41% 30.11 in 10.0 mi North 3.5 mph - N/A   Mostly Cloudy
4:35 PM 32.0 °F 28.7 °F -0.4 °F 25% 30.12 in 10.0 mi North 3.5 mph - N/A   Mostly Cloudy
4:55 PM 32.0 °F 28.7 °F -0.4 °F 25% 30.13 in 10.0 mi South 3.5 mph - N/A   Scattered Clouds
5:15 PM 32.0 °F - -2.2 °F 23% 30.15 in 10.0 mi Calm Calm - N/A   Scattered Clouds
5:35 PM 32.0 °F 27.5 °F -2.2 °F 23% 30.16 in 10.0 mi North 4.6 mph - N/A   Scattered Clouds
5:54 PM 30.2 °F 26.7 °F -2.2 °F 25% 30.17 in 10.0 mi North 3.5 mph 18.4 mph N/A   Scattered Clouds
6:15 PM 32.0 °F 24.2 °F -2.2 °F 23% 30.18 in 10.0 mi WSW 9.2 mph 18.4 mph N/A   Scattered Clouds
6:35 PM 30.2 °F 21.3 °F -4.0 °F 23% 30.19 in 10.0 mi West 10.4 mph 16.1 mph N/A   Clear
6:55 PM 28.4 °F 21.2 °F -5.8 °F 23% 30.20 in 10.0 mi North 6.9 mph - N/A   Clear
7:15 PM 28.4 °F 19.7 °F -5.8 °F 23% 30.22 in 10.0 mi WSW 9.2 mph - N/A   Clear
7:35 PM 28.4 °F 22.2 °F -5.8 °F 23% 30.22 in 10.0 mi NW 5.8 mph 17.3 mph N/A   Clear
7:55 PM 26.6 °F 18.2 °F -5.8 °F 24% 30.23 in 10.0 mi NW 8.1 mph - N/A   Clear
8:15 PM 26.6 °F 20.0 °F -4.0 °F 26% 30.24 in 10.0 mi North 5.8 mph - N/A   Clear
8:35 PM 26.6 °F 18.2 °F -0.4 °F 31% 30.26 in 10.0 mi North 8.1 mph 19.6 mph N/A   Clear
8:55 PM 26.6 °F 18.2 °F -0.4 °F 31% 30.26 in 10.0 mi North 8.1 mph - N/A   Clear
9:15 PM 26.6 °F 18.2 °F -0.4 °F 31% 30.25 in 10.0 mi North 8.1 mph - N/A   Clear
9:35 PM 24.8 °F 17.9 °F 1.4 °F 36% 30.27 in 10.0 mi North 5.8 mph - N/A   Clear
9:55 PM 23.0 °F 13.9 °F -0.4 °F 36% 30.26 in 10.0 mi North 8.1 mph - N/A   Clear
10:15 PM 26.6 °F 21.2 °F -0.4 °F 31% 30.27 in 10.0 mi NNE 4.6 mph - N/A   Clear
10:34 PM 23.0 °F 15.8 °F -0.4 °F 36% 30.28 in 10.0 mi North 5.8 mph - N/A   Clear
10:55 PM 23.0 °F 17.0 °F -0.4 °F 36% 30.28 in 10.0 mi NNE 4.6 mph - N/A   Clear
11:15 PM 23.0 °F - -0.4 °F 36% 30.29 in 10.0 mi Calm Calm - N/A   Clear
11:35 PM 23.0 °F - 3.2 °F 43% 30.29 in 10.0 mi Calm Calm - N/A   Clear
11:55 PM 24.8 °F 19.1 °F -4.0 °F 28% 30.29 in 10.0 mi NNW 4.6 mph - N/A   Clear